This demonstration page uses our WeatherBlox Daily Observations layout. Learn more.

Left ArrowRight Arrow

53.62937, 11.41316

Hourly Observations for September 25, 2015

Temp ( °F °C ) Dew Point ( °F °C ) Humidity (%) Winds ( mph kmh ) Pressure ( in mb ) Visibility ( mi km ) Precip ( " mm )
6:20 am 06:20 Mostly Cloudy 55 13 52 11 88 88 WSW 6 9 30.06 1018 30 48 N/A
6:50 am 06:50 Mostly Cloudy 54 12 52 11 94 94 WSW 5 7 30.06 1018 30 48 N/A
7:20 am 07:20 Partly Cloudy 54 12 52 11 94 94 WSW 6 9 30.09 1019 30 48 N/A
7:50 am 07:50 Mostly Sunny 50 10 48 9 94 94 WSW 3 6 30.09 1019 7 11 N/A
8:20 am 08:20 Mostly Sunny 52 11 52 11 100 100 WSW 6 9 30.09 1019 7 11 N/A
8:50 am 08:50 Mostly Sunny 54 12 52 11 94 94 WSW 6 9 30.09 1019 7 11 N/A
9:20 am 09:20 Mostly Cloudy 54 12 50 10 88 88 W 5 7 30.12 1020 30 48 N/A
9:50 am 09:50 Cloudy 54 12 50 10 88 88 WSW 8 13 30.12 1020 30 48 N/A
10:20 am 10:20 Cloudy 55 13 50 10 82 82 SW 10 17 30.12 1020 30 48 N/A
10:50 am 10:50 Partly Cloudy 55 13 50 10 82 82 W 8 13 30.12 1020 30 48 N/A
11:20 am 11:20 Mostly Sunny 57 14 50 10 77 77 WSW 6 9 30.12 1020 30 48 N/A
11:50 am 11:50 Mostly Sunny 59 15 50 10 72 72 SW 7 11 30.12 1020 30 48 N/A
12:20 pm 12:20 Mostly Sunny 61 16 48 9 63 63 SW 7 11 30.12 1020 7 11 N/A
12:50 pm 12:50 Mostly Sunny 61 16 46 8 59 59 W 7 11 30.12 1020 7 11 N/A
1:20 pm 13:20 Mostly Sunny 61 16 46 8 59 59 WSW 9 15 30.12 1020 7 11 N/A
1:50 pm 13:50 Mostly Sunny 63 17 48 9 59 59 W 8 13 30.12 1020 30 48 N/A
2:20 pm 14:20 Mostly Sunny 64 18 48 9 56 56 WSW 10 17 30.12 1020 30 48 N/A
2:50 pm 14:50 Mostly Sunny 63 17 48 9 59 59 WNW 9 15 30.12 1020 30 48 N/A
3:20 pm 15:20 Mostly Sunny 63 17 46 8 56 56 W 9 15 30.12 1020 30 48 N/A
3:50 pm 15:50 Partly Cloudy 61 16 48 9 63 63 W 7 11 30.12 1020 30 48 N/A
4:20 pm 16:20 Partly Cloudy 63 17 48 9 59 59 WSW 9 15 30.12 1020 30 48 N/A
4:50 pm 16:50 Mostly Cloudy 61 16 50 10 68 68 W 10 17 30.15 1021 30 48 N/A
5:20 pm 17:20 Mostly Cloudy 59 15 50 10 72 72 WNW 7 11 30.15 1021 30 48 N/A
5:50 pm 17:50 Mostly Cloudy 59 15 52 11 77 77 W 6 9 30.15 1021 30 48 N/A
6:20 pm 18:20 Mostly Sunny 59 15 52 11 77 77 W 7 11 30.15 1021 7 11 N/A
6:50 pm 18:50 Mostly Sunny 57 14 52 11 82 82 W 3 6 30.15 1021 7 11 N/A

Powered by AerisWeather